![]() |
EMODnet Physics ERDDAP
Easier access to scientific data |
log in|
Brought to you by EMODnet Physics |
| Dataset Title: | NDBC - Collection of dew point temperature (DEWT) TimeSeries - IN SITU MultiPointTimeSeriesObservation
|
| Institution: | NDBC (Dataset ID: TS_DEWT_NDBC) |
| Information: | Summary
| License
| FGDC
| ISO 19115
| Metadata
| Background
| Subset
| Data Access Form
| Make a graph
|
| Name | Last modified | Size | Description | |
|---|---|---|---|---|
| Parent Directory | - | - | ||
| PRTA2_TS_DEWT_012007.nc | 27-Oct-2024 19:08 | 994880 | ||
| PRTA2_TS_DEWT_012008.nc | 27-Oct-2024 19:08 | 603267 | ||
| PRTA2_TS_DEWT_012009.nc | 27-Oct-2024 19:08 | 994894 | ||
| PRTA2_TS_DEWT_012010.nc | 27-Oct-2024 19:08 | 916040 | ||
| PRTA2_TS_DEWT_012011.nc | 27-Oct-2024 19:09 | 994578 | ||
| PRTA2_TS_DEWT_012012.nc | 27-Oct-2024 19:09 | 994923 | ||
| PRTA2_TS_DEWT_012013.nc | 27-Oct-2024 19:09 | 994829 | ||
| PRTA2_TS_DEWT_012014.nc | 27-Oct-2024 19:09 | 1143089 | ||
| PRTA2_TS_DEWT_012015.nc | 27-Oct-2024 19:09 | 424165 | ||
| PRTA2_TS_DEWT_012016.nc | 27-Oct-2024 19:09 | 606754 | ||
| PRTA2_TS_DEWT_012017.nc | 27-Oct-2024 19:09 | 1143320 | ||
| PRTA2_TS_DEWT_012018.nc | 27-Oct-2024 19:09 | 994045 | ||
| PRTA2_TS_DEWT_012020.nc | 27-Oct-2024 19:09 | 904387 | ||
| PRTA2_TS_DEWT_012021.nc | 27-Oct-2024 19:09 | 1143328 | ||
| PRTA2_TS_DEWT_012022.nc | 27-Oct-2024 19:09 | 992143 | ||
| PRTA2_TS_DEWT_012023.nc | 27-Oct-2024 19:09 | 424458 | ||
| PRTA2_TS_DEWT_012024.nc | 27-Oct-2024 19:09 | 991542 | ||
| PRTA2_TS_DEWT_012025.nc | 07-Feb-2025 12:05 | 994503 | ||
| PRTA2_TS_DEWT_012026.nc | 02-Feb-2026 17:45 | 917486 | ||
| PRTA2_TS_DEWT_022007.nc | 27-Oct-2024 19:09 | 1142404 | ||
| PRTA2_TS_DEWT_022008.nc | 27-Oct-2024 19:09 | 1143284 | ||
| PRTA2_TS_DEWT_022009.nc | 27-Oct-2024 19:09 | 917195 | ||
| PRTA2_TS_DEWT_022010.nc | 27-Oct-2024 19:09 | 913722 | ||
| PRTA2_TS_DEWT_022011.nc | 27-Oct-2024 19:09 | 588713 | ||
| PRTA2_TS_DEWT_022012.nc | 27-Oct-2024 19:10 | 905242 | ||
| PRTA2_TS_DEWT_022013.nc | 27-Oct-2024 19:10 | 917246 | ||
| PRTA2_TS_DEWT_022014.nc | 27-Oct-2024 19:10 | 425474 | ||
| PRTA2_TS_DEWT_022015.nc | 27-Oct-2024 19:10 | 1143124 | ||
| PRTA2_TS_DEWT_022017.nc | 27-Oct-2024 19:10 | 1142358 | ||
| PRTA2_TS_DEWT_022018.nc | 27-Oct-2024 19:10 | 605513 | ||
| PRTA2_TS_DEWT_022020.nc | 27-Oct-2024 19:10 | 914879 | ||
| PRTA2_TS_DEWT_022021.nc | 27-Oct-2024 19:10 | 438657 | ||
| PRTA2_TS_DEWT_022022.nc | 27-Oct-2024 19:10 | 916016 | ||
| PRTA2_TS_DEWT_022023.nc | 27-Oct-2024 19:10 | 992971 | ||
| PRTA2_TS_DEWT_022024.nc | 16-Sep-2024 16:51 | 902317 | ||
| PRTA2_TS_DEWT_022025.nc | 03-Mar-2025 05:53 | 916794 | ||
| PRTA2_TS_DEWT_022026.nc | 01-Mar-2026 06:24 | 994581 | ||
| PRTA2_TS_DEWT_032007.nc | 27-Oct-2024 19:10 | 993233 | ||
| PRTA2_TS_DEWT_032008.nc | 27-Oct-2024 19:10 | 1141752 | ||
| PRTA2_TS_DEWT_032009.nc | 27-Oct-2024 19:10 | 906634 | ||
| PRTA2_TS_DEWT_032010.nc | 27-Oct-2024 19:10 | 1143352 | ||
| PRTA2_TS_DEWT_032011.nc | 27-Oct-2024 19:10 | 910044 | ||
| PRTA2_TS_DEWT_032012.nc | 27-Oct-2024 19:10 | 993102 | ||
| PRTA2_TS_DEWT_032013.nc | 27-Oct-2024 19:10 | 1143064 | ||
| PRTA2_TS_DEWT_032014.nc | 27-Oct-2024 19:10 | 994035 | ||
| PRTA2_TS_DEWT_032015.nc | 27-Oct-2024 19:11 | 993228 | ||
| PRTA2_TS_DEWT_032017.nc | 27-Oct-2024 19:11 | 916793 | ||
| PRTA2_TS_DEWT_032018.nc | 27-Oct-2024 19:11 | 994637 | ||
| PRTA2_TS_DEWT_032019.nc | 27-Oct-2024 19:11 | 918064 | ||
| PRTA2_TS_DEWT_032020.nc | 27-Oct-2024 19:11 | 912074 | ||
| PRTA2_TS_DEWT_032021.nc | 27-Oct-2024 19:11 | 994285 | ||
| PRTA2_TS_DEWT_032022.nc | 27-Oct-2024 19:11 | 993891 | ||
| PRTA2_TS_DEWT_032023.nc | 27-Oct-2024 19:11 | 606808 | ||
| PRTA2_TS_DEWT_032025.nc | 02-Apr-2025 04:40 | 994732 | ||
| PRTA2_TS_DEWT_032026.nc | 22-Mar-2026 08:38 | 1142045 | ||
| PRTA2_TS_DEWT_042007.nc | 27-Oct-2024 19:11 | 993354 | ||
| PRTA2_TS_DEWT_042008.nc | 27-Oct-2024 19:11 | 991709 | ||
| PRTA2_TS_DEWT_042009.nc | 27-Oct-2024 19:11 | 994764 | ||
| PRTA2_TS_DEWT_042010.nc | 27-Oct-2024 19:11 | 993502 | ||
| PRTA2_TS_DEWT_042011.nc | 27-Oct-2024 19:11 | 593055 | ||
| PRTA2_TS_DEWT_042012.nc | 27-Oct-2024 19:11 | 432938 | ||
| PRTA2_TS_DEWT_042013.nc | 27-Oct-2024 19:11 | 1143180 | ||
| PRTA2_TS_DEWT_042014.nc | 27-Oct-2024 19:11 | 993999 | ||
| PRTA2_TS_DEWT_042015.nc | 27-Oct-2024 19:12 | 994011 | ||
| PRTA2_TS_DEWT_042016.nc | 27-Oct-2024 19:12 | 909734 | ||
| PRTA2_TS_DEWT_042017.nc | 27-Oct-2024 19:12 | 1143179 | ||
| PRTA2_TS_DEWT_042018.nc | 27-Oct-2024 19:12 | 435802 | ||
| PRTA2_TS_DEWT_042019.nc | 27-Oct-2024 19:12 | 597620 | ||
| PRTA2_TS_DEWT_042020.nc | 27-Oct-2024 19:12 | 994828 | ||
| PRTA2_TS_DEWT_042022.nc | 27-Oct-2024 19:12 | 992098 | ||
| PRTA2_TS_DEWT_042023.nc | 27-Oct-2024 19:12 | 915123 | ||
| PRTA2_TS_DEWT_042025.nc | 01-May-2025 06:22 | 914000 | ||
| PRTA2_TS_DEWT_052007.nc | 27-Oct-2024 19:12 | 587322 | ||
| PRTA2_TS_DEWT_052008.nc | 27-Oct-2024 19:12 | 594495 | ||
| PRTA2_TS_DEWT_052009.nc | 27-Oct-2024 19:12 | 593205 | ||
| PRTA2_TS_DEWT_052010.nc | 27-Oct-2024 19:12 | 1143114 | ||
| PRTA2_TS_DEWT_052011.nc | 27-Oct-2024 19:12 | 917443 | ||
| PRTA2_TS_DEWT_052012.nc | 27-Oct-2024 19:13 | 994022 | ||
| PRTA2_TS_DEWT_052013.nc | 27-Oct-2024 19:13 | 1141808 | ||
| PRTA2_TS_DEWT_052014.nc | 27-Oct-2024 19:13 | 1142690 | ||
| PRTA2_TS_DEWT_052015.nc | 27-Oct-2024 19:13 | 993647 | ||
| PRTA2_TS_DEWT_052016.nc | 27-Oct-2024 19:13 | 911205 | ||
| PRTA2_TS_DEWT_052017.nc | 27-Oct-2024 19:13 | 994125 | ||
| PRTA2_TS_DEWT_052018.nc | 27-Oct-2024 19:13 | 603472 | ||
| PRTA2_TS_DEWT_052019.nc | 27-Oct-2024 19:13 | 994903 | ||
| PRTA2_TS_DEWT_052020.nc | 27-Oct-2024 19:13 | 915639 | ||
| PRTA2_TS_DEWT_052021.nc | 27-Oct-2024 19:13 | 994829 | ||
| PRTA2_TS_DEWT_052022.nc | 27-Oct-2024 19:13 | 914662 | ||
| PRTA2_TS_DEWT_052023.nc | 27-Oct-2024 19:13 | 994710 | ||
| PRTA2_TS_DEWT_052025.nc | 01-Jun-2025 06:57 | 902265 | ||
| PRTA2_TS_DEWT_062007.nc | 27-Oct-2024 19:13 | 424194 | ||
| PRTA2_TS_DEWT_062008.nc | 27-Oct-2024 19:13 | 915686 | ||
| PRTA2_TS_DEWT_062009.nc | 27-Oct-2024 19:13 | 912298 | ||
| PRTA2_TS_DEWT_062010.nc | 27-Oct-2024 19:14 | 993958 | ||
| PRTA2_TS_DEWT_062011.nc | 27-Oct-2024 19:14 | 904123 | ||
| PRTA2_TS_DEWT_062012.nc | 27-Oct-2024 19:14 | 1143326 | ||
| PRTA2_TS_DEWT_062013.nc | 27-Oct-2024 19:14 | 917657 | ||
| PRTA2_TS_DEWT_062014.nc | 27-Oct-2024 19:14 | 992289 | ||
| PRTA2_TS_DEWT_062015.nc | 27-Oct-2024 19:14 | 1142085 | ||
| PRTA2_TS_DEWT_062016.nc | 27-Oct-2024 19:14 | 991546 | ||
| PRTA2_TS_DEWT_062017.nc | 27-Oct-2024 19:14 | 994616 | ||
| PRTA2_TS_DEWT_062018.nc | 27-Oct-2024 19:14 | 917613 | ||
| PRTA2_TS_DEWT_062019.nc | 27-Oct-2024 19:14 | 1143265 | ||
| PRTA2_TS_DEWT_062020.nc | 27-Oct-2024 19:14 | 1143284 | ||
| PRTA2_TS_DEWT_062021.nc | 27-Oct-2024 19:14 | 916795 | ||
| PRTA2_TS_DEWT_062022.nc | 27-Oct-2024 19:14 | 917270 | ||
| PRTA2_TS_DEWT_062023.nc | 27-Oct-2024 19:14 | 917184 | ||
| PRTA2_TS_DEWT_062025.nc | 01-Jul-2025 07:26 | 913729 | ||
| PRTA2_TS_DEWT_072007.nc | 27-Oct-2024 19:14 | 908338 | ||
| PRTA2_TS_DEWT_072008.nc | 27-Oct-2024 19:14 | 916945 | ||
| PRTA2_TS_DEWT_072009.nc | 27-Oct-2024 19:14 | 917171 | ||
| PRTA2_TS_DEWT_072010.nc | 27-Oct-2024 19:15 | 1142811 | ||
| PRTA2_TS_DEWT_072011.nc | 27-Oct-2024 19:15 | 994569 | ||
| PRTA2_TS_DEWT_072012.nc | 27-Oct-2024 19:15 | 1142823 | ||
| PRTA2_TS_DEWT_072013.nc | 27-Oct-2024 19:15 | 1142135 | ||
| PRTA2_TS_DEWT_072014.nc | 27-Oct-2024 19:15 | 439859 | ||
| PRTA2_TS_DEWT_072015.nc | 27-Oct-2024 19:15 | 992992 | ||
| PRTA2_TS_DEWT_072016.nc | 27-Oct-2024 19:15 | 993869 | ||
| PRTA2_TS_DEWT_072017.nc | 27-Oct-2024 19:15 | 906440 | ||
| PRTA2_TS_DEWT_072018.nc | 27-Oct-2024 19:15 | 991847 | ||
| PRTA2_TS_DEWT_072019.nc | 27-Oct-2024 19:15 | 917313 | ||
| PRTA2_TS_DEWT_072020.nc | 27-Oct-2024 19:15 | 902643 | ||
| PRTA2_TS_DEWT_072021.nc | 27-Oct-2024 19:15 | 916506 | ||
| PRTA2_TS_DEWT_072022.nc | 27-Oct-2024 19:15 | 994703 | ||
| PRTA2_TS_DEWT_072023.nc | 27-Oct-2024 19:15 | 993016 | ||
| PRTA2_TS_DEWT_072025.nc | 01-Aug-2025 07:55 | 1142528 | ||
| PRTA2_TS_DEWT_082007.nc | 27-Oct-2024 19:16 | 433480 | ||
| PRTA2_TS_DEWT_082008.nc | 27-Oct-2024 19:16 | 1143352 | ||
| PRTA2_TS_DEWT_082009.nc | 27-Oct-2024 19:16 | 916451 | ||
| PRTA2_TS_DEWT_082010.nc | 27-Oct-2024 19:16 | 994014 | ||
| PRTA2_TS_DEWT_082011.nc | 27-Oct-2024 19:16 | 1143351 | ||
| PRTA2_TS_DEWT_082013.nc | 27-Oct-2024 19:16 | 992886 | ||
| PRTA2_TS_DEWT_082014.nc | 27-Oct-2024 19:16 | 909732 | ||
| PRTA2_TS_DEWT_082015.nc | 27-Oct-2024 19:16 | 994638 | ||
| PRTA2_TS_DEWT_082016.nc | 27-Oct-2024 19:16 | 901715 | ||
| PRTA2_TS_DEWT_082017.nc | 27-Oct-2024 19:16 | 597346 | ||
| PRTA2_TS_DEWT_082018.nc | 27-Oct-2024 19:16 | 994619 | ||
| PRTA2_TS_DEWT_082019.nc | 27-Oct-2024 19:16 | 992124 | ||
| PRTA2_TS_DEWT_082020.nc | 27-Oct-2024 19:16 | 1143120 | ||
| PRTA2_TS_DEWT_082021.nc | 27-Oct-2024 19:17 | 587231 | ||
| PRTA2_TS_DEWT_082022.nc | 27-Oct-2024 19:17 | 1142044 | ||
| PRTA2_TS_DEWT_082023.nc | 27-Oct-2024 19:17 | 913111 | ||
| PRTA2_TS_DEWT_082025.nc | 01-Sep-2025 09:08 | 994194 | ||
| PRTA2_TS_DEWT_092007.nc | 27-Oct-2024 19:17 | 1143277 | ||
| PRTA2_TS_DEWT_092008.nc | 27-Oct-2024 19:17 | 993493 | ||
| PRTA2_TS_DEWT_092009.nc | 27-Oct-2024 19:17 | 994145 | ||
| PRTA2_TS_DEWT_092010.nc | 27-Oct-2024 19:17 | 426212 | ||
| PRTA2_TS_DEWT_092011.nc | 27-Oct-2024 19:17 | 1143121 | ||
| PRTA2_TS_DEWT_092012.nc | 27-Oct-2024 19:17 | 994133 | ||
| PRTA2_TS_DEWT_092013.nc | 27-Oct-2024 19:17 | 993916 | ||
| PRTA2_TS_DEWT_092014.nc | 27-Oct-2024 19:17 | 1143286 | ||
| PRTA2_TS_DEWT_092015.nc | 27-Oct-2024 19:17 | 1143179 | ||
| PRTA2_TS_DEWT_092016.nc | 27-Oct-2024 19:17 | 917997 | ||
| PRTA2_TS_DEWT_092017.nc | 27-Oct-2024 19:17 | 594905 | ||
| PRTA2_TS_DEWT_092018.nc | 27-Oct-2024 19:17 | 994828 | ||
| PRTA2_TS_DEWT_092019.nc | 27-Oct-2024 19:17 | 992162 | ||
| PRTA2_TS_DEWT_092020.nc | 27-Oct-2024 19:18 | 917447 | ||
| PRTA2_TS_DEWT_092021.nc | 27-Oct-2024 19:18 | 917071 | ||
| PRTA2_TS_DEWT_092022.nc | 27-Oct-2024 19:18 | 435521 | ||
| PRTA2_TS_DEWT_092023.nc | 27-Oct-2024 19:18 | 594223 | ||
| PRTA2_TS_DEWT_092025.nc | 01-Oct-2025 09:34 | 601165 | ||
| PRTA2_TS_DEWT_102006.nc | 27-Oct-2024 19:18 | 1143040 | ||
| PRTA2_TS_DEWT_102007.nc | 27-Oct-2024 19:18 | 991827 | ||
| PRTA2_TS_DEWT_102008.nc | 27-Oct-2024 19:18 | 994024 | ||
| PRTA2_TS_DEWT_102009.nc | 27-Oct-2024 19:18 | 1141630 | ||
| PRTA2_TS_DEWT_102010.nc | 27-Oct-2024 19:18 | 1143183 | ||
| PRTA2_TS_DEWT_102011.nc | 27-Oct-2024 19:18 | 994268 | ||
| PRTA2_TS_DEWT_102012.nc | 27-Oct-2024 19:18 | 911534 | ||
| PRTA2_TS_DEWT_102013.nc | 27-Oct-2024 19:18 | 994808 | ||
| PRTA2_TS_DEWT_102014.nc | 27-Oct-2024 19:18 | 603290 | ||
| PRTA2_TS_DEWT_102015.nc | 27-Oct-2024 19:18 | 994903 | ||
| PRTA2_TS_DEWT_102016.nc | 27-Oct-2024 19:18 | 915891 | ||
| PRTA2_TS_DEWT_102017.nc | 27-Oct-2024 19:19 | 994630 | ||
| PRTA2_TS_DEWT_102018.nc | 27-Oct-2024 19:19 | 994791 | ||
| PRTA2_TS_DEWT_102019.nc | 27-Oct-2024 19:19 | 994792 | ||
| PRTA2_TS_DEWT_102020.nc | 27-Oct-2024 19:19 | 1143237 | ||
| PRTA2_TS_DEWT_102021.nc | 27-Oct-2024 19:19 | 1143282 | ||
| PRTA2_TS_DEWT_102022.nc | 27-Oct-2024 19:19 | 915687 | ||
| PRTA2_TS_DEWT_102023.nc | 27-Oct-2024 19:19 | 1143122 | ||
| PRTA2_TS_DEWT_102024.nc | 12-Jan-2025 23:11 | 992519 | ||
| PRTA2_TS_DEWT_102025.nc | 01-Nov-2025 09:06 | 904470 | ||
| PRTA2_TS_DEWT_112006.nc | 27-Oct-2024 19:19 | 1143326 | ||
| PRTA2_TS_DEWT_112007.nc | 27-Oct-2024 19:19 | 991939 | ||
| PRTA2_TS_DEWT_112008.nc | 27-Oct-2024 19:19 | 420698 | ||
| PRTA2_TS_DEWT_112009.nc | 27-Oct-2024 19:19 | 438193 | ||
| PRTA2_TS_DEWT_112010.nc | 27-Oct-2024 19:19 | 438153 | ||
| PRTA2_TS_DEWT_112011.nc | 27-Oct-2024 19:19 | 438960 | ||
| PRTA2_TS_DEWT_112012.nc | 27-Oct-2024 19:19 | 439146 | ||
| PRTA2_TS_DEWT_112013.nc | 27-Oct-2024 19:20 | 587262 | ||
| PRTA2_TS_DEWT_112014.nc | 27-Oct-2024 19:20 | 435621 | ||
| PRTA2_TS_DEWT_112015.nc | 27-Oct-2024 19:20 | 587209 | ||
| PRTA2_TS_DEWT_112016.nc | 27-Oct-2024 19:20 | 439033 | ||
| PRTA2_TS_DEWT_112017.nc | 27-Oct-2024 19:20 | 437258 | ||
| PRTA2_TS_DEWT_112018.nc | 27-Oct-2024 19:20 | 438542 | ||
| PRTA2_TS_DEWT_112019.nc | 27-Oct-2024 19:20 | 438825 | ||
| PRTA2_TS_DEWT_112020.nc | 27-Oct-2024 19:20 | 434403 | ||
| PRTA2_TS_DEWT_112021.nc | 27-Oct-2024 19:20 | 438770 | ||
| PRTA2_TS_DEWT_112022.nc | 27-Oct-2024 19:20 | 438706 | ||
| PRTA2_TS_DEWT_112023.nc | 27-Oct-2024 19:20 | 439837 | ||
| PRTA2_TS_DEWT_112024.nc | 17-Jan-2025 20:14 | 436509 | ||
| PRTA2_TS_DEWT_112025.nc | 01-Dec-2025 04:31 | 587286 | ||
| PRTA2_TS_DEWT_122006.nc | 27-Oct-2024 19:20 | 586922 | ||
| PRTA2_TS_DEWT_122007.nc | 27-Oct-2024 19:20 | 433895 | ||
| PRTA2_TS_DEWT_122008.nc | 27-Oct-2024 19:20 | 587250 | ||
| PRTA2_TS_DEWT_122009.nc | 27-Oct-2024 19:20 | 587313 | ||
| PRTA2_TS_DEWT_122010.nc | 27-Oct-2024 19:21 | 431025 | ||
| PRTA2_TS_DEWT_122011.nc | 27-Oct-2024 19:21 | 439877 | ||
| PRTA2_TS_DEWT_122012.nc | 27-Oct-2024 19:21 | 440137 | ||
| PRTA2_TS_DEWT_122013.nc | 27-Oct-2024 19:21 | 440153 | ||
| PRTA2_TS_DEWT_122014.nc | 27-Oct-2024 19:21 | 439910 | ||
| PRTA2_TS_DEWT_122015.nc | 27-Oct-2024 19:21 | 439200 | ||
| PRTA2_TS_DEWT_122016.nc | 27-Oct-2024 19:21 | 440216 | ||
| PRTA2_TS_DEWT_122017.nc | 27-Oct-2024 19:21 | 440196 | ||
| PRTA2_TS_DEWT_122019.nc | 27-Oct-2024 19:21 | 432913 | ||
| PRTA2_TS_DEWT_122020.nc | 27-Oct-2024 19:21 | 437422 | ||
| PRTA2_TS_DEWT_122021.nc | 27-Oct-2024 19:21 | 587235 | ||
| PRTA2_TS_DEWT_122022.nc | 27-Oct-2024 19:21 | 440175 | ||
| PRTA2_TS_DEWT_122023.nc | 27-Oct-2024 19:21 | 587109 | ||
| PRTA2_TS_DEWT_122024.nc | 22-Jan-2025 20:02 | 426068 | ||
| PRTA2_TS_DEWT_122025.nc | 01-Jan-2026 05:59 | 587273 | ||